QPF
0.01 0.01 0.01 0.02 0.03 0.03 0.02 0.01 0.00 0.00 0.00 0.00 0.00 0.00 0.00 0.00 0.01 0.01 0.00 0.00 0.00 0.00 0.00 0.00 0.01 0.03 0.02 0.02 0.02 0.02 0.02 0.02 0.02 0.03 0.03 0.03 0.05 0.05 0.05 0.03 0.02 0.02 0.03 0.05 0.05 0.03 0.02 0.01 0.01
0.01 0.01 0.02 0.03 0.03 0.02 0.01 0.01 0.00 0.00 0.00 0.00 0.00 0.00 0.00 0.00 0.00 0.00 0.00 0.00 0.00 0.00 0.00 0.01 0.02 0.02 0.02 0.03 0.03 0.03 0.03 0.03 0.03 0.03 0.02 0.02 0.03 0.07 0.06 0.03 0.02 0.03 0.05 0.07 0.06 0.02 0.02 0.01 0.01
0.01 0.01 0.02 0.03 0.02 0.02 0.02 0.01 0.01 0.00 0.00 0.00 0.00 0.00 0.00 0.00 0.00 0.00 0.00 0.00 0.00 0.00 0.01 0.02 0.04 0.01 0.02 0.03 0.03 0.03 0.03 0.03 0.04 0.04 0.03 0.02 0.02 0.04 0.06 0.03 0.03 0.04 0.05 0.07 0.06 0.03 0.02 0.01 0.01
0.01 0.01 0.01 0.02 0.01 0.01 0.02 0.01 0.00 0.00 0.00 0.00 0.00 0.00 0.00 0.00 0.00 0.00 0.00 0.00 0.00 0.01 0.01 0.02 0.04 0.02 0.02 0.03 0.04 0.03 0.03 0.03 0.03 0.03 0.03 0.02 0.01 0.02 0.03 0.03 0.04 0.05 0.04 0.05 0.05 0.04 0.02 0.01 0.01
0.01 0.02 0.02 0.02 0.01 0.00 0.01 0.01 0.00 0.00 0.00 0.00 0.00 0.00 0.00 0.00 0.00 0.00 0.00 0.00 0.00 0.00 0.00 0.01 0.03 0.03 0.02 0.02 0.03 0.03 0.03 0.03 0.03 0.03 0.02 0.01 0.01 0.01 0.02 0.03 0.04 0.05 0.03 0.04 0.04 0.03 0.03 0.01 0.01
0.03 0.02 0.02 0.02 0.01 0.01 0.00 0.00 0.00 0.00 0.00 0.00 0.01 0.00 0.01 0.00 0.00 0.00 0.00 0.00 0.00 0.00 0.00 0.00 0.01 0.02 0.01 0.03 0.04 0.04 0.04 0.03 0.03 0.02 0.02 0.02 0.02 0.02 0.03 0.03 0.03 0.04 0.04 0.04 0.03 0.03 0.02 0.02 0.01
0.02 0.02 0.01 0.01 0.01 0.01 0.01 0.00 0.00 0.01 0.01 0.00 0.01 0.01 0.01 0.00 0.00 0.00 0.00 0.00 0.00 0.00 0.00 0.01 0.01 0.02 0.02 0.03 0.06 0.05 0.05 0.04 0.04 0.04 0.04 0.04 0.05 0.04 0.03 0.04 0.03 0.04 0.04 0.03 0.02 0.02 0.02 0.01 0.01
0.02 0.02 0.01 0.01 0.02 0.02 0.01 0.01 0.00 0.01 0.01 0.00 0.00 0.01 0.01 0.00 0.00 0.00 0.00 0.00 0.00 0.00 0.00 0.01 0.01 0.01 0.02 0.03 0.05 0.04 0.04 0.05 0.06 0.05 0.04 0.03 0.03 0.03 0.02 0.03 0.03 0.03 0.03 0.03 0.02 0.01 0.01 0.01 0.01
0.01 0.02 0.02 0.02 0.02 0.01 0.01 0.01 0.00 0.01 0.00 0.00 0.00 0.01 0.01 0.00 0.00 0.00 0.00 0.00 0.00 0.00 0.00 0.00 0.01 0.01 0.01 0.01 0.04 0.04 0.02 0.03 0.04 0.04 0.03 0.02 0.03 0.02 0.02 0.01 0.01 0.02 0.02 0.02 0.01 0.01 0.01 0.01 0.00
0.01 0.01 0.01 0.01 0.01 0.01 0.01 0.01 0.00 0.00 0.00 0.00 0.00 0.00 0.01 0.01 0.01 0.00 0.00 0.00 0.00 0.00 0.00 0.00 0.01 0.01 0.01 0.01 0.02 0.04 0.03 0.02 0.03 0.03 0.02 0.02 0.03 0.03 0.02 0.01 0.01 0.01 0.01 0.01 0.01 0.00 0.00 0.00 0.01
0.00 0.00 0.00 0.00 0.00 0.01 0.00 0.00 0.00 0.00 0.00 0.00 0.00 0.00 0.01 0.01 0.01 0.01 0.00 0.00 0.01 0.00 0.00 0.00 0.01 0.01 0.02 0.02 0.02 0.03 0.03 0.02 0.02 0.02 0.02 0.02 0.02 0.03 0.02 0.02 0.01 0.01 0.01 0.01 0.01 0.00 0.01 0.01 0.02
0.00 0.00 0.00 0.00 0.00 0.00 0.00 0.00 0.00 0.00 0.00 0.00 0.00 0.00 0.00 0.01 0.01 0.01 0.00 0.00 0.01 0.01 0.01 0.01 0.00 0.01 0.02 0.02 0.02 0.03 0.03 0.03 0.02 0.02 0.02 0.02 0.02 0.03 0.03 0.02 0.02 0.02 0.01 0.02 0.02 0.02 0.01 0.01 0.01
0.00 0.00 0.00 0.00 0.00 0.00 0.00 0.00 0.00 0.00 0.00 0.00 0.00 0.00 0.00 0.00 0.00 0.01 0.01 0.00 0.01 0.01 0.01 0.01 0.01 0.01 0.01 0.02 0.02 0.02 0.03 0.03 0.03 0.03 0.02 0.02 0.02 0.02 0.02 0.02 0.01 0.01 0.02 0.02 0.02 0.02 0.01 0.01 0.02
0.00 0.00 0.00 0.00 0.00 0.00 0.00 0.00 0.00 0.00 0.00 0.00 0.00 0.00 0.00 0.00 0.00 0.00 0.01 0.01 0.01 0.01 0.01 0.01 0.01 0.01 0.01 0.01 0.02 0.02 0.03 0.04 0.04 0.05 0.03 0.02 0.02 0.02 0.02 0.02 0.02 0.02 0.02 0.03 0.03 0.02 0.02 0.02 0.02
0.00 0.00 0.00 0.00 0.00 0.00 0.00 0.00 0.00 0.00 0.00 0.00 0.00 0.00 0.00 0.00 0.00 0.00 0.00 0.01 0.01 0.01 0.01 0.01 0.01 0.01 0.01 0.01 0.01 0.02 0.02 0.04 0.05 0.05 0.04 0.03 0.02 0.02 0.02 0.02 0.02 0.01 0.01 0.02 0.02 0.02 0.02 0.01 0.02
0.00 0.00 0.00 0.00 0.00 0.00 0.00 0.00 0.00 0.00 0.00 0.00 0.00 0.00 0.00 0.00 0.00 0.00 0.00 0.00 0.01 0.02 0.02 0.02 0.01 0.01 0.01 0.01 0.01 0.01 0.02 0.02 0.03 0.04 0.04 0.04 0.03 0.02 0.03 0.03 0.02 0.02 0.02 0.02 0.01 0.01 0.01 0.01 0.01
0.01 0.00 0.00 0.00 0.00 0.00 0.00 0.00 0.00 0.00 0.00 0.00 0.00 0.00 0.00 0.00 0.00 0.00 0.00 0.00 0.00 0.01 0.02 0.02 0.01 0.01 0.01 0.01 0.01 0.01 0.01 0.01 0.02 0.02 0.02 0.02 0.02 0.02 0.02 0.03 0.03 0.03 0.03 0.02 0.02 0.02 0.02 0.02 0.02
0.00 0.00 0.00 0.00 0.00 0.00 0.00 0.00 0.00 0.00 0.00 0.00 0.00 0.00 0.00 0.00 0.00 0.00 0.00 0.01 0.01 0.01 0.01 0.02 0.02 0.02 0.02 0.02 0.01 0.01 0.01 0.01 0.02 0.02 0.02 0.02 0.01 0.02 0.02 0.02 0.02 0.03 0.03 0.02 0.01 0.01 0.01 0.02 0.03
0.00 0.00 0.00 0.00 0.00 0.00 0.00 0.00 0.00 0.00 0.00 0.00 0.00 0.00 0.00 0.00 0.00 0.00 0.01 0.01 0.01 0.01 0.01 0.01 0.02 0.02 0.02 0.02 0.02 0.01 0.00 0.01 0.02 0.02 0.01 0.01 0.02 0.01 0.01 0.01 0.02 0.02 0.02 0.02 0.02 0.01 0.01 0.02 0.02
0.00 0.00 0.00 0.00 0.00 0.00 0.00 0.00 0.00 0.00 0.00 0.00 0.00 0.00 0.00 0.00 0.00 0.01 0.01 0.01 0.01 0.01 0.01 0.01 0.01 0.01 0.01 0.02 0.02 0.01 0.01 0.01 0.01 0.02 0.01 0.01 0.01 0.01 0.01 0.01 0.01 0.01 0.02 0.02 0.02 0.02 0.02 0.02 0.03
0.00 0.00 0.00 0.00 0.00 0.00 0.00 0.00 0.00 0.00 0.00 0.00 0.00 0.00 0.00 0.00 0.00 0.00 0.00 0.00 0.00 0.01 0.01 0.01 0.01 0.00 0.00 0.01 0.01 0.02 0.02 0.02 0.02 0.02 0.02 0.01 0.01 0.01 0.01 0.01 0.01 0.02 0.02 0.02 0.02 0.03 0.02 0.02 0.03
0.00 0.00 0.00 0.00 0.00 0.00 0.00 0.00 0.00 0.00 0.00 0.00 0.00 0.00 0.00 0.00 0.00 0.00 0.00 0.00 0.00 0.00 0.00 0.01 0.01 0.00 0.00 0.01 0.01 0.01 0.02 0.02 0.02 0.01 0.01 0.01 0.01 0.01 0.01 0.01 0.02 0.02 0.02 0.02 0.02 0.04 0.02 0.02 0.03
0.01 0.00 0.00 0.00 0.01 0.01 0.00 0.00 0.00 0.00 0.00 0.00 0.00 0.00 0.00 0.00 0.00 0.00 0.00 0.00 0.00 0.00 0.00 0.00 0.01 0.01 0.00 0.01 0.01 0.01 0.02 0.02 0.02 0.02 0.02 0.02 0.01 0.01 0.01 0.02 0.02 0.02 0.03 0.02 0.03 0.03 0.02 0.02 0.03
0.01 0.01 0.01 0.01 0.01 0.02 0.00 0.00 0.00 0.00 0.00 0.00 0.00 0.00 0.00 0.00 0.00 0.00 0.00 0.00 0.00 0.00 0.00 0.00 0.00 0.00 0.00 0.00 0.01 0.02 0.02 0.02 0.02 0.02 0.02 0.02 0.02 0.01 0.01 0.02 0.02 0.02 0.03 0.04 0.03 0.02 0.01 0.01 0.02
0.00 0.01 0.02 0.02 0.02 0.01 0.00 0.00 0.00 0.00 0.00 0.00 0.00 0.00 0.00 0.00 0.00 0.00 0.00 0.00 0.00 0.00 0.00 0.00 0.00 0.00 0.00 0.00 0.01 0.01 0.01 0.01 0.01 0.02 0.02 0.02 0.02 0.02 0.02 0.02 0.03 0.03 0.03 0.03 0.04 0.04 0.03 0.02 0.02
0.01 0.01 0.02 0.02 0.01 0.01 0.00 0.00 0.00 0.00 0.00 0.00 0.00 0.00 0.00 0.00 0.00 0.00 0.00 0.00 0.00 0.00 0.00 0.01 0.01 0.01 0.01 0.01 0.01 0.01 0.01 0.01 0.01 0.01 0.01 0.02 0.03 0.03 0.03 0.03 0.03 0.03 0.04 0.04 0.04 0.04 0.05 0.05 0.04
0.01 0.01 0.01 0.01 0.01 0.01 0.00 0.00 0.00 0.00 0.00 0.00 0.00 0.00 0.00 0.00 0.00 0.00 0.00 0.00 0.00 0.00 0.01 0.01 0.02 0.02 0.01 0.01 0.01 0.01 0.01 0.01 0.01 0.01 0.02 0.02 0.02 0.02 0.03 0.03 0.04 0.04 0.04 0.04 0.05 0.04 0.04 0.04 0.04
0.01 0.01 0.01 0.02 0.02 0.01 0.00 0.00 0.00 0.00 0.00 0.00 0.00 0.00 0.00 0.00 0.00 0.00 0.00 0.00 0.00 0.00 0.01 0.01 0.01 0.01 0.01 0.01 0.01 0.01 0.01 0.01 0.01 0.01 0.02 0.02 0.02 0.02 0.02 0.03 0.03 0.04 0.03 0.03 0.04 0.04 0.05 0.05 0.04
0.02 0.02 0.02 0.02 0.02 0.01 0.01 0.01 0.00 0.00 0.00 0.00 0.00 0.00 0.00 0.00 0.00 0.00 0.00 0.00 0.00 0.00 0.01 0.01 0.01 0.01 0.01 0.01 0.01 0.01 0.01 0.01 0.01 0.01 0.01 0.02 0.02 0.02 0.02 0.03 0.04 0.05 0.05 0.04 0.04 0.04 0.04 0.04 0.04
0.01 0.02 0.02 0.03 0.02 0.01 0.01 0.01 0.00 0.00 0.00 0.00 0.00 0.00 0.01 0.00 0.00 0.00 0.00 0.00 0.00 0.00 0.00 0.00 0.00 0.00 0.01 0.01 0.01 0.01 0.01 0.01 0.01 0.01 0.01 0.01 0.02 0.02 0.03 0.03 0.04 0.04 0.05 0.06 0.06 0.06 0.06 0.05 0.05
MSLP
1014.27 1014.54 1014.95 1015.44 1015.96 1016.41 1016.76 1016.99 1017.12 1017.20 1017.30 1017.49 1017.82 1018.30 1018.92 1019.63 1020.38 1021.08 1021.71 1022.24 1022.68 1023.05 1023.39 1023.72 1024.05 1024.38 1024.68 1024.92 1025.08 1025.14 1025.10 1025.01 1024.88 1024.75 1024.66 1024.62 1024.62 1024.65 1024.69 1024.73 1024.75 1024.76 1024.74 1024.72 1024.69 1024.65 1024.59 1024.49 1024.36
1014.63 1014.96 1015.41 1015.91 1016.39 1016.78 1017.04 1017.19 1017.24 1017.26 1017.34 1017.54 1017.89 1018.41 1019.06 1019.79 1020.53 1021.22 1021.81 1022.31 1022.73 1023.09 1023.44 1023.79 1024.15 1024.52 1024.85 1025.13 1025.31 1025.40 1025.41 1025.35 1025.27 1025.19 1025.15 1025.14 1025.17 1025.21 1025.24 1025.26 1025.25 1025.22 1025.19 1025.16 1025.13 1025.10 1025.05 1024.97 1024.85
1015.09 1015.46 1015.92 1016.38 1016.77 1017.06 1017.21 1017.25 1017.22 1017.21 1017.29 1017.52 1017.93 1018.50 1019.21 1019.97 1020.72 1021.40 1021.97 1022.43 1022.82 1023.16 1023.50 1023.86 1024.25 1024.65 1025.02 1025.33 1025.55 1025.68 1025.73 1025.72 1025.68 1025.65 1025.64 1025.66 1025.70 1025.73 1025.74 1025.72 1025.67 1025.61 1025.56 1025.51 1025.49 1025.47 1025.45 1025.40 1025.29
1015.61 1015.99 1016.42 1016.81 1017.10 1017.26 1017.28 1017.21 1017.12 1017.08 1017.18 1017.46 1017.94 1018.59 1019.36 1020.16 1020.92 1021.58 1022.12 1022.54 1022.89 1023.21 1023.54 1023.91 1024.32 1024.74 1025.15 1025.50 1025.77 1025.94 1026.03 1026.06 1026.06 1026.07 1026.09 1026.13 1026.16 1026.18 1026.17 1026.12 1026.04 1025.96 1025.88 1025.84 1025.82 1025.83 1025.84 1025.81 1025.74
1016.10 1016.48 1016.86 1017.17 1017.35 1017.39 1017.30 1017.14 1016.99 1016.94 1017.06 1017.40 1017.96 1018.68 1019.50 1020.33 1021.08 1021.72 1022.22 1022.60 1022.92 1023.21 1023.53 1023.91 1024.34 1024.80 1025.24 1025.63 1025.93 1026.14 1026.27 1026.34 1026.38 1026.41 1026.46 1026.51 1026.55 1026.56 1026.53 1026.47 1026.38 1026.28 1026.21 1026.17 1026.18 1026.21 1026.24 1026.25 1026.20
1016.50 1016.88 1017.22 1017.45 1017.54 1017.49 1017.31 1017.09 1016.91 1016.87 1017.02 1017.42 1018.02 1018.80 1019.65 1020.48 1021.22 1021.82 1022.28 1022.61 1022.89 1023.16 1023.47 1023.86 1024.31 1024.80 1025.28 1025.70 1026.04 1026.28 1026.44 1026.53 1026.60 1026.66 1026.73 1026.79 1026.84 1026.86 1026.84 1026.78 1026.70 1026.62 1026.56 1026.54 1026.57 1026.62 1026.68 1026.70 1026.69
1016.80 1017.17 1017.47 1017.66 1017.69 1017.58 1017.36 1017.11 1016.93 1016.91 1017.10 1017.53 1018.17 1018.97 1019.82 1020.63 1021.34 1021.89 1022.29 1022.58 1022.82 1023.07 1023.39 1023.78 1024.25 1024.76 1025.27 1025.71 1026.08 1026.34 1026.52 1026.64 1026.73 1026.81 1026.90 1026.98 1027.05 1027.10 1027.11 1027.07 1027.02 1026.97 1026.93 1026.94 1026.98 1027.04 1027.11 1027.15 1027.15
1016.98 1017.34 1017.63 1017.80 1017.81 1017.68 1017.45 1017.21 1017.05 1017.06 1017.28 1017.73 1018.38 1019.17 1019.99 1020.76 1021.42 1021.91 1022.27 1022.52 1022.74 1022.98 1023.29 1023.69 1024.17 1024.70 1025.22 1025.69 1026.06 1026.34 1026.54 1026.67 1026.78 1026.88 1026.99 1027.10 1027.20 1027.28 1027.32 1027.33 1027.31 1027.29 1027.28 1027.30 1027.35 1027.42 1027.49 1027.53 1027.53
1017.09 1017.45 1017.72 1017.88 1017.89 1017.77 1017.57 1017.36 1017.23 1017.26 1017.50 1017.96 1018.59 1019.34 1020.12 1020.84 1021.44 1021.89 1022.20 1022.43 1022.63 1022.87 1023.18 1023.59 1024.08 1024.62 1025.14 1025.61 1025.99 1026.28 1026.49 1026.63 1026.76 1026.87 1027.01 1027.14 1027.28 1027.39 1027.48 1027.52 1027.54 1027.55 1027.56 1027.58 1027.63 1027.69 1027.75 1027.78 1027.78
1017.17 1017.50 1017.76 1017.91 1017.93 1017.83 1017.66 1017.49 1017.39 1017.44 1017.68 1018.11 1018.71 1019.41 1020.12 1020.78 1021.34 1021.75 1022.05 1022.28 1022.49 1022.73 1023.06 1023.47 1023.96 1024.50 1025.02 1025.48 1025.86 1026.16 1026.37 1026.53 1026.66 1026.80 1026.95 1027.12 1027.28 1027.43 1027.54 1027.62 1027.66 1027.69 1027.70 1027.73 1027.77 1027.81 1027.85 1027.87 1027.87
1017.23 1017.53 1017.76 1017.89 1017.91 1017.82 1017.67 1017.52 1017.44 1017.49 1017.70 1018.10 1018.64 1019.27 1019.93 1020.54 1021.07 1021.47 1021.78 1022.03 1022.26 1022.54 1022.88 1023.30 1023.79 1024.32 1024.82 1025.28 1025.66 1025.95 1026.17 1026.34 1026.50 1026.65 1026.82 1027.01 1027.19 1027.36 1027.50 1027.59 1027.65 1027.68 1027.70 1027.72 1027.74 1027.77 1027.79 1027.81 1027.81
1017.31 1017.53 1017.71 1017.80 1017.80 1017.70 1017.56 1017.41 1017.32 1017.34 1017.52 1017.85 1018.33 1018.89 1019.50 1020.08 1020.59 1021.01 1021.36 1021.65 1021.93 1022.24 1022.62 1023.05 1023.54 1024.05 1024.55 1024.99 1025.36 1025.66 1025.89 1026.07 1026.24 1026.42 1026.60 1026.80 1027.00 1027.19 1027.34 1027.45 1027.51 1027.55 1027.56 1027.57 1027.58 1027.60 1027.62 1027.64 1027.65
1017.37 1017.50 1017.60 1017.63 1017.59 1017.47 1017.30 1017.13 1017.01 1016.99 1017.10 1017.37 1017.77 1018.27 1018.82 1019.38 1019.91 1020.37 1020.77 1021.13 1021.47 1021.84 1022.24 1022.69 1023.18 1023.68 1024.17 1024.60 1024.97 1025.27 1025.51 1025.72 1025.90 1026.09 1026.30 1026.51 1026.72 1026.91 1027.08 1027.20 1027.28 1027.32 1027.34 1027.34 1027.35 1027.37 1027.40 1027.44 1027.48
1017.37 1017.41 1017.42 1017.38 1017.29 1017.13 1016.93 1016.73 1016.56 1016.48 1016.52 1016.70 1017.02 1017.46 1017.98 1018.53 1019.07 1019.58 1020.05 1020.48 1020.90 1021.32 1021.76 1022.22 1022.72 1023.21 1023.68 1024.11 1024.49 1024.80 1025.06 1025.28 1025.49 1025.70 1025.91 1026.14 1026.36 1026.57 1026.75 1026.89 1026.98 1027.05 1027.08 1027.11 1027.14 1027.17 1027.22 1027.29 1027.36
1017.27 1017.23 1017.17 1017.08 1016.94 1016.75 1016.52 1016.28 1016.06 1015.91 1015.87 1015.97 1016.22 1016.59 1017.07 1017.61 1018.17 1018.73 1019.26 1019.76 1020.24 1020.71 1021.18 1021.67 1022.16 1022.66 1023.13 1023.56 1023.94 1024.27 1024.55 1024.80 1025.03 1025.25 1025.49 1025.73 1025.97 1026.19 1026.40 1026.57 1026.70 1026.80 1026.87 1026.93 1026.99 1027.06 1027.14 1027.24 1027.35
1017.07 1016.97 1016.87 1016.75 1016.59 1016.39 1016.14 1015.86 1015.60 1015.39 1015.27 1015.28 1015.45 1015.76 1016.19 1016.71 1017.29 1017.88 1018.46 1019.02 1019.54 1020.06 1020.56 1021.06 1021.57 1022.06 1022.54 1022.98 1023.39 1023.74 1024.04 1024.31 1024.56 1024.81 1025.06 1025.31 1025.57 1025.82 1026.06 1026.27 1026.45 1026.60 1026.73 1026.83 1026.94 1027.05 1027.17 1027.30 1027.45
1016.78 1016.67 1016.57 1016.46 1016.31 1016.11 1015.86 1015.56 1015.25 1014.97 1014.78 1014.71 1014.79 1015.02 1015.41 1015.90 1016.48 1017.08 1017.69 1018.28 1018.85 1019.39 1019.91 1020.43 1020.95 1021.46 1021.96 1022.43 1022.85 1023.23 1023.57 1023.86 1024.13 1024.39 1024.65 1024.92 1025.21 1025.49 1025.77 1026.02 1026.26 1026.46 1026.64 1026.80 1026.95 1027.10 1027.26 1027.43 1027.60
1016.46 1016.38 1016.33 1016.26 1016.14 1015.96 1015.71 1015.38 1015.02 1014.67 1014.39 1014.23 1014.22 1014.38 1014.71 1015.16 1015.72 1016.33 1016.95 1017.56 1018.15 1018.71 1019.26 1019.80 1020.34 1020.88 1021.40 1021.90 1022.36 1022.78 1023.14 1023.46 1023.75 1024.02 1024.30 1024.58 1024.88 1025.19 1025.50 1025.81 1026.09 1026.35 1026.58 1026.79 1026.98 1027.17 1027.36 1027.55 1027.75
1016.22 1016.20 1016.20 1016.18 1016.10 1015.93 1015.66 1015.29 1014.86 1014.42 1014.04 1013.77 1013.67 1013.75 1014.01 1014.42 1014.96 1015.56 1016.19 1016.82 1017.43 1018.02 1018.59 1019.16 1019.73 1020.31 1020.87 1021.41 1021.92 1022.37 1022.77 1023.11 1023.41 1023.70 1023.98 1024.27 1024.58 1024.91 1025.26 1025.60 1025.93 1026.23 1026.50 1026.74 1026.96 1027.18 1027.38 1027.60 1027.81
1016.13 1016.18 1016.24 1016.25 1016.18 1015.98 1015.65 1015.19 1014.65 1014.09 1013.58 1013.21 1013.00 1013.00 1013.20 1013.58 1014.10 1014.70 1015.34 1015.99 1016.63 1017.26 1017.87 1018.49 1019.10 1019.72 1020.34 1020.93 1021.48 1021.98 1022.40 1022.77 1023.09 1023.38 1023.67 1023.97 1024.29 1024.63 1025.00 1025.36 1025.71 1026.04 1026.34 1026.60 1026.84 1027.07 1027.29 1027.51 1027.74
1016.26 1016.36 1016.45 1016.46 1016.33 1016.04 1015.58 1014.97 1014.27 1013.55 1012.90 1012.39 1012.08 1012.00 1012.16 1012.52 1013.03 1013.66 1014.34 1015.03 1015.72 1016.40 1017.07 1017.74 1018.41 1019.09 1019.76 1020.41 1021.01 1021.55 1022.01 1022.41 1022.74 1023.05 1023.34 1023.65 1023.97 1024.32 1024.70 1025.07 1025.44 1025.78 1026.09 1026.36 1026.60 1026.83 1027.06 1027.30 1027.55
1016.63 1016.75 1016.81 1016.74 1016.49 1016.03 1015.37 1014.55 1013.64 1012.72 1011.89 1011.25 1010.84 1010.70 1010.83 1011.19 1011.74 1012.41 1013.15 1013.91 1014.67 1015.42 1016.16 1016.90 1017.64 1018.38 1019.11 1019.81 1020.46 1021.03 1021.54 1021.96 1022.32 1022.65 1022.95 1023.27 1023.61 1023.97 1024.35 1024.73 1025.10 1025.44 1025.75 1026.02 1026.27 1026.50 1026.74 1026.99 1027.26
1017.18 1017.27 1017.25 1017.04 1016.59 1015.90 1014.98 1013.90 1012.73 1011.59 1010.59 1009.81 1009.31 1009.13 1009.25 1009.64 1010.25 1010.99 1011.81 1012.66 1013.51 1014.35 1015.17 1015.98 1016.79 1017.58 1018.36 1019.11 1019.79 1020.41 1020.95 1021.41 1021.80 1022.16 1022.49 1022.83 1023.19 1023.56 1023.95 1024.34 1024.72 1025.06 1025.38 1025.65 1025.90 1026.14 1026.39 1026.66 1026.95
1017.82 1017.85 1017.69 1017.29 1016.60 1015.63 1014.42 1013.05 1011.62 1010.26 1009.09 1008.19 1007.63 1007.42 1007.56 1008.00 1008.67 1009.50 1010.42 1011.37 1012.31 1013.24 1014.14 1015.02 1015.88 1016.73 1017.54 1018.32 1019.03 1019.68 1020.25 1020.75 1021.18 1021.58 1021.96 1022.34 1022.73 1023.13 1023.54 1023.94 1024.33 1024.68 1025.00 1025.29 1025.55 1025.82 1026.08 1026.37 1026.69
1018.43 1018.38 1018.06 1017.44 1016.50 1015.24 1013.75 1012.11 1010.45 1008.90 1007.59 1006.60 1005.99 1005.79 1005.96 1006.45 1007.19 1008.10 1009.10 1010.13 1011.16 1012.16 1013.13 1014.06 1014.97 1015.84 1016.68 1017.47 1018.21 1018.87 1019.47 1020.01 1020.49 1020.94 1021.37 1021.81 1022.24 1022.69 1023.13 1023.56 1023.96 1024.34 1024.67 1024.98 1025.27 1025.56 1025.86 1026.18 1026.53
1018.90 1018.76 1018.29 1017.47 1016.29 1014.79 1013.06 1011.20 1009.37 1007.69 1006.29 1005.26 1004.63 1004.44 1004.63 1005.16 1005.95 1006.91 1007.97 1009.06 1010.14 1011.19 1012.20 1013.17 1014.10 1014.98 1015.83 1016.62 1017.36 1018.04 1018.66 1019.23 1019.76 1020.27 1020.77 1021.26 1021.76 1022.26 1022.74 1023.20 1023.63 1024.03 1024.40 1024.74 1025.07 1025.39 1025.74 1026.10 1026.47
1019.15 1018.93 1018.33 1017.35 1015.99 1014.32 1012.43 1010.45 1008.53 1006.80 1005.37 1004.33 1003.72 1003.53 1003.74 1004.27 1005.07 1006.03 1007.10 1008.20 1009.30 1010.37 1011.40 1012.38 1013.31 1014.19 1015.02 1015.80 1016.53 1017.21 1017.85 1018.46 1019.04 1019.61 1020.17 1020.74 1021.30 1021.85 1022.37 1022.87 1023.33 1023.76 1024.16 1024.53 1024.91 1025.28 1025.67 1026.08 1026.49
1019.13 1018.85 1018.17 1017.08 1015.62 1013.86 1011.92 1009.92 1008.00 1006.30 1004.91 1003.90 1003.31 1003.13 1003.32 1003.82 1004.57 1005.49 1006.51 1007.58 1008.65 1009.70 1010.71 1011.68 1012.59 1013.46 1014.27 1015.03 1015.75 1016.43 1017.08 1017.71 1018.34 1018.97 1019.59 1020.22 1020.84 1021.44 1022.01 1022.54 1023.03 1023.48 1023.91 1024.33 1024.74 1025.17 1025.62 1026.07 1026.52
1018.84 1018.51 1017.78 1016.65 1015.17 1013.42 1011.53 1009.60 1007.78 1006.18 1004.88 1003.94 1003.38 1003.18 1003.33 1003.75 1004.40 1005.22 1006.14 1007.12 1008.12 1009.12 1010.10 1011.04 1011.93 1012.77 1013.56 1014.31 1015.01 1015.68 1016.34 1017.00 1017.67 1018.34 1019.03 1019.72 1020.39 1021.03 1021.63 1022.18 1022.69 1023.16 1023.61 1024.06 1024.52 1025.00 1025.50 1026.01 1026.51
1018.32 1017.95 1017.19 1016.05 1014.61 1012.95 1011.17 1009.40 1007.74 1006.29 1005.12 1004.26 1003.74 1003.52 1003.58 1003.89 1004.41 1005.07 1005.86 1006.72 1007.62 1008.55 1009.48 1010.39 1011.26 1012.08 1012.86 1013.59 1014.28 1014.95 1015.62 1016.30 1017.00 1017.72 1018.45 1019.19 1019.90 1020.57 1021.20 1021.76 1022.28 1022.76 1023.22 1023.70 1024.19 1024.72 1025.27 1025.84 1026.39
Thickness
5683 5688 5691 5686 5674 5668 5670 5686 5698 5696 5697 5699 5700 5700 5694 5688 5682 5673 5680 5687 5686 5682 5679 5676 5674 5673 5671 5669 5667 5666 5665 5665 5664 5664 5663 5663 5663 5662 5662 5662 5662 5661 5662 5661 5660 5660 5659 5658 5657
5679 5685 5683 5676 5664 5659 5671 5688 5691 5693 5694 5695 5695 5694 5691 5684 5684 5680 5680 5682 5682 5679 5676 5673 5671 5669 5668 5666 5664 5663 5662 5661 5660 5660 5659 5659 5658 5658 5658 5658 5658 5657 5657 5657 5656 5655 5654 5653 5653
5676 5680 5672 5667 5663 5663 5672 5686 5687 5689 5692 5691 5688 5689 5685 5680 5680 5678 5678 5679 5677 5675 5672 5669 5667 5666 5664 5662 5661 5660 5658 5658 5657 5656 5655 5655 5654 5654 5654 5653 5653 5653 5653 5652 5651 5650 5649 5648 5648
5671 5669 5666 5659 5659 5672 5678 5684 5685 5683 5684 5687 5684 5678 5678 5678 5677 5675 5675 5675 5673 5670 5667 5665 5663 5662 5660 5658 5657 5656 5655 5654 5653 5652 5652 5651 5650 5650 5649 5649 5648 5648 5648 5647 5646 5645 5644 5644 5643
5666 5660 5652 5651 5658 5672 5681 5684 5683 5678 5677 5680 5679 5673 5668 5672 5674 5672 5671 5670 5668 5666 5664 5660 5658 5657 5656 5654 5653 5652 5651 5650 5649 5648 5647 5647 5646 5646 5645 5644 5644 5643 5643 5642 5641 5640 5639 5638 5637
5655 5655 5645 5646 5657 5670 5678 5681 5679 5674 5674 5676 5673 5668 5662 5666 5667 5666 5666 5665 5664 5662 5659 5656 5654 5652 5651 5650 5649 5648 5647 5646 5645 5644 5643 5643 5642 5641 5640 5640 5639 5638 5637 5636 5635 5634 5633 5632 5631
5647 5646 5645 5651 5656 5663 5670 5674 5671 5668 5667 5669 5671 5663 5658 5660 5662 5662 5662 5661 5659 5656 5654 5651 5649 5648 5647 5646 5645 5644 5643 5642 5641 5641 5640 5638 5637 5636 5636 5635 5634 5633 5632 5631 5629 5628 5627 5626 5625
5648 5644 5645 5650 5653 5656 5664 5667 5667 5664 5663 5668 5667 5658 5654 5655 5657 5657 5656 5654 5653 5651 5649 5647 5645 5644 5643 5641 5640 5640 5639 5638 5637 5636 5635 5634 5633 5632 5631 5630 5629 5627 5626 5625 5623 5622 5620 5619 5618
5645 5634 5637 5647 5650 5653 5657 5657 5658 5660 5658 5658 5658 5656 5655 5653 5651 5649 5648 5646 5645 5645 5644 5643 5641 5640 5639 5637 5636 5636 5635 5634 5633 5631 5630 5629 5628 5627 5626 5625 5623 5622 5621 5619 5618 5616 5614 5612 5611
5636 5629 5637 5647 5649 5649 5650 5649 5650 5650 5648 5648 5648 5648 5648 5646 5644 5642 5641 5641 5640 5639 5639 5638 5637 5636 5635 5634 5632 5631 5630 5629 5628 5627 5626 5625 5623 5622 5621 5619 5618 5616 5615 5613 5612 5610 5608 5606 5604
5633 5631 5639 5643 5643 5642 5642 5644 5646 5643 5641 5645 5644 5642 5640 5639 5638 5638 5638 5638 5637 5636 5635 5634 5633 5632 5631 5630 5629 5627 5627 5626 5624 5623 5621 5620 5619 5617 5616 5614 5613 5611 5609 5608 5606 5604 5602 5601 5600
5628 5631 5635 5635 5633 5633 5635 5638 5637 5638 5639 5645 5646 5643 5637 5634 5634 5633 5633 5632 5632 5631 5630 5630 5629 5628 5627 5626 5625 5624 5623 5622 5620 5619 5618 5616 5615 5613 5611 5609 5608 5606 5604 5603 5601 5599 5598 5597 5595
5621 5623 5627 5627 5625 5626 5627 5628 5629 5634 5638 5641 5640 5636 5632 5629 5629 5629 5629 5628 5627 5626 5625 5625 5625 5624 5623 5622 5621 5620 5619 5617 5616 5615 5614 5612 5611 5609 5607 5605 5603 5601 5600 5598 5596 5595 5593 5592 5591
5617 5618 5619 5621 5620 5621 5620 5623 5624 5632 5635 5634 5631 5628 5628 5627 5626 5624 5623 5622 5622 5621 5621 5620 5620 5619 5618 5617 5616 5615 5614 5613 5612 5611 5610 5608 5606 5604 5602 5600 5598 5597 5595 5593 5592 5590 5588 5587 5586
5610 5607 5611 5616 5617 5617 5614 5614 5623 5631 5630 5627 5625 5624 5623 5622 5622 5620 5619 5618 5617 5617 5617 5616 5616 5615 5614 5613 5611 5611 5610 5609 5608 5607 5606 5603 5602 5600 5597 5595 5593 5591 5590 5588 5586 5584 5583 5582 5581
5602 5600 5601 5614 5614 5611 5603 5608 5626 5629 5624 5620 5620 5619 5617 5617 5617 5615 5615 5613 5612 5612 5612 5611 5611 5610 5609 5608 5606 5605 5605 5604 5603 5602 5600 5598 5596 5594 5592 5590 5587 5585 5583 5581 5580 5578 5576 5576 5575
5593 5595 5601 5607 5610 5608 5600 5605 5620 5623 5620 5616 5615 5614 5613 5612 5611 5611 5610 5609 5608 5607 5606 5606 5606 5604 5603 5602 5601 5600 5600 5599 5597 5596 5594 5592 5591 5588 5586 5584 5581 5579 5577 5575 5573 5571 5570 5569 5568
5591 5597 5602 5603 5604 5602 5598 5603 5612 5615 5613 5611 5611 5611 5610 5607 5607 5606 5606 5605 5603 5602 5601 5600 5600 5599 5598 5596 5595 5594 5594 5593 5592 5590 5588 5586 5584 5582 5580 5578 5575 5573 5571 5568 5566 5564 5563 5562 5562
5593 5592 5594 5600 5599 5594 5595 5601 5608 5610 5609 5607 5606 5605 5605 5605 5604 5602 5601 5600 5599 5597 5596 5595 5594 5593 5592 5590 5589 5588 5587 5587 5586 5584 5583 5581 5578 5576 5574 5572 5569 5567 5565 5562 5560 5558 5557 5556 5556
5584 5583 5586 5592 5592 5590 5591 5597 5607 5609 5608 5607 5604 5602 5602 5600 5599 5597 5596 5594 5593 5591 5590 5589 5588 5588 5587 5585 5585 5584 5582 5581 5581 5578 5577 5575 5573 5571 5569 5566 5564 5562 5559 5557 5555 5553 5551 5550 5549
5577 5576 5579 5580 5583 5584 5582 5590 5603 5608 5605 5603 5602 5600 5599 5597 5593 5591 5590 5588 5586 5585 5584 5584 5583 5582 5581 5580 5579 5577 5575 5575 5573 5572 5571 5570 5568 5566 5564 5562 5559 5557 5554 5552 5550 5548 5546 5544 5543
5568 5574 5574 5571 5565 5568 5576 5568 5597 5602 5598 5596 5595 5594 5592 5591 5589 5586 5584 5582 5581 5580 5578 5577 5576 5575 5574 5574 5573 5572 5571 5570 5570 5568 5565 5563 5562 5560 5558 5556 5554 5552 5550 5547 5546 5544 5542 5540 5537
5561 5563 5564 5562 5560 5559 5568 5561 5584 5597 5592 5590 5589 5589 5587 5585 5584 5581 5579 5577 5575 5574 5572 5571 5570 5569 5568 5567 5566 5565 5565 5564 5563 5561 5559 5557 5555 5553 5552 5550 5548 5547 5545 5543 5541 5538 5536 5535 5533
5553 5552 5553 5552 5549 5543 5564 5560 5574 5586 5591 5588 5586 5584 5581 5580 5578 5575 5572 5570 5568 5567 5566 5565 5564 5563 5562 5561 5559 5559 5558 5557 5555 5554 5552 5550 5549 5547 5545 5544 5542 5541 5539 5537 5535 5533 5531 5529 5528
5542 5538 5535 5533 5531 5542 5566 5561 5568 5583 5587 5585 5581 5577 5575 5573 5570 5567 5565 5562 5561 5559 5559 5558 5557 5556 5555 5554 5553 5552 5551 5549 5548 5547 5546 5544 5543 5541 5540 5538 5536 5535 5534 5532 5529 5527 5525 5523 5522
5535 5537 5529 5529 5535 5547 5552 5553 5566 5579 5581 5579 5575 5571 5568 5565 5563 5560 5558 5556 5554 5553 5552 5551 5550 5550 5549 5548 5546 5545 5544 5543 5541 5540 5539 5538 5536 5535 5534 5532 5530 5529 5527 5526 5524 5521 5519 5517 5515
5528 5527 5534 5529 5522 5523 5544 5558 5563 5571 5570 5568 5566 5562 5558 5556 5555 5553 5551 5548 5546 5545 5544 5544 5543 5542 5541 5541 5539 5538 5537 5536 5535 5533 5532 5531 5529 5528 5527 5525 5523 5521 5520 5519 5517 5514 5512 5510 5508
5516 5522 5518 5517 5515 5522 5546 5555 5554 5558 5559 5559 5555 5552 5550 5548 5545 5544 5542 5540 5539 5537 5536 5535 5535 5534 5532 5531 5531 5530 5528 5528 5527 5526 5524 5523 5522 5520 5519 5518 5516 5514 5513 5511 5508 5506 5504 5502 5501
5504 5507 5509 5514 5518 5519 5527 5539 5554 5553 5552 5549 5546 5544 5542 5539 5536 5535 5534 5532 5530 5529 5527 5526 5525 5524 5523 5523 5522 5521 5520 5519 5518 5517 5517 5516 5514 5513 5511 5510 5508 5506 5505 5503 5500 5498 5496 5494 5493
5504 5507 5505 5501 5503 5510 5516 5522 5546 5544 5541 5540 5538 5536 5533 5530 5528 5526 5525 5523 5521 5520 5518 5517 5515 5514 5514 5514 5513 5511 5510 5509 5509 5508 5508 5507 5505 5504 5503 5501 5499 5498 5497 5495 5492 5490 5489 5487 5485